Location: Saint Louis
(38.6272°N, 90.1978°W)
Time: 01:52:57
(UTC-05:00)

ISS - Pass Details

Date: 07 August 2013
Orbit: 402 x 403 km, 51.6° (Epoch: 30 June)

Event Time Altitude Azimuth Distance (km) Brightness Sun altitude
Rises 20:33:31 0° 256° (WSW) 2,329 1.4 -6.0°
Reaches altitude 10° 20:35:47 10° 268° (W) 1,464 0.6 -6.4°
Maximum altitude 20:38:41 28° 330° (NNW) 793 -1.1 -6.9°
Drops below altitude 10° 20:41:34 10° 32° (NNE) 1,459 -0.5 -7.4°
Enters shadow 20:47:10 -10° 52° (NE) 3,655 1.3 -8.4°
